Regional Weather Roundup
Issued by NWS

Home | Current Version | Previous Version | Graphics & Text | Print | Product List | Glossary On
Versions: 1 2 3 4 5 6 7 8 9 10 11 12 13 14 15 16 17 18 19 20 21 22 23 24 25 26 27 28 29 30 31 32 33 34 35 36 37 38 39 40 41 42 43 44 45 46 47 48 49 50
000
ASUS43 KFSD 161910
RWRSD

WEATHER ROUNDUP FOR SOUTH DAKOTA
NATIONAL WEATHER SERVICE SIOUX FALLS SD
100 PM CST MON JAN 16 2017

NOTE: "FAIR" INDICATES FEW OR NO CLOUDS BELOW 12,000 FEET WITH NO
SIGNIFICANT WEATHER AND/OR OBSTRUCTIONS TO VISIBILITY.


SDZ001>005-009-010-012>017-162000-
NORTHWEST AND NORTH CENTRAL SOUTH DAKOTA

CITY           SKY/WX    TMP DP  RH WIND       PRES   REMARKS
BUFFALO          N/A     22  13  68 W14       30.01F WCI   9
FAITH            N/A     18  12  77 W14       30.05F WCI   4
MOBRIDGE       CLOUDY    15   5  64 NW7       30.05F WCI   5
$$

SDZ012>016-024>037-041>051-057-063-072>074-162000-
SOUTHWEST AND SOUTH CENTRAL SOUTH DAKOTA

CITY           SKY/WX    TMP DP  RH WIND       PRES   REMARKS
RAPID CTY ARPT SUNNY     34  19  54 N12       30.06F WCI  25
PIERRE         CLOUDY    16   9  74 W8        30.07F WCI   5
CUSTER         SUNNY     38   8  29 E3        30.02F
ELLSWORTH AFB  SUNNY     34  17  50 N14       30.05F WCI  25
PHILIP         CLOUDY    27  16  63 W5        30.09F WCI  22
PINE RIDGE     CLOUDY    28  18  66 W6        30.09F WCI  22
SPEARFISH      FAIR      36  16  44 W15       30.08F
WINNER         FAIR      29  17  61 NW16      30.05F WCI  17
$$

SDZ004>011-016>023-039-040-162000-
NORTHEAST SOUTH DAKOTA

CITY           SKY/WX    TMP DP  RH WIND       PRES   REMARKS
ABERDEEN       CLOUDY    22   6  50 NW3       30.07F
WATERTOWN      CLOUDY    21  19  92 CALM      30.00F
BROOKINGS      CLOUDY    28  19  69 N3        30.01F
SISSETON         N/A     24  19  81 N7        30.06S WCI  16
$$

SDZ017-020-022-023-036>040-048>070-162000-
SOUTHEAST SOUTH DAKOTA

CITY           SKY/WX    TMP DP  RH WIND       PRES   REMARKS
SIOUX FALLS    CLOUDY    30  23  75 N7        30.01F WCI  23
HURON          CLOUDY    19  12  74 N5        30.06F WCI  12
CHAMBERLAIN    CLOUDY    24  17  73 W8        30.06F WCI  15
MITCHELL       CLOUDY    26  20  77 NW9       30.05F WCI  17
YANKTON        CLOUDY    30  27  86 CALM      30.02S
$$

ABBREVIATIONS USED IN REMARKS
   TC - TEMPERATURE IN CELSIUS
  WCI - WIND CHILL INDEX
   HX - HEAT INDEX
  VSB - VISIBILITY




USA.gov is the U.S. government's official web portal to all federal, state and local government web resources and services.